User: anonymous   Login
Location: Unspecified
(0.0000°N, 0.0000°E)
Time: 15:38:51
(UTC+02:00)
Language:

DELTA 2 R/B (1) - Orbit

View from above orbital plane
View from above orbital plane
View from above satellite
View from above satellite

Ground track
Ground track

The orbit data is extracted from the following two-line orbital elements,

1 27665U 03005C   16238.78942766  .00000040  00000-0  49540-4 0  9993
2 27665  39.5752 174.3427 0008933 156.1549 240.9341 14.28416197708686
Epoch (UTC): 25 August 2016 18:56:46
Eccentricity: 0.0008933
inclination: 39.5752°
perigee height: 790 km
apogee height: 803 km
right ascension of ascending node: 174.3427°
argument of perigee: 156.1549°
revolutions per day: 14.28416197
mean anomaly at epoch: 240.9341°
orbit number at epoch: 70868

The dashed part of the orbit path shows where the satellite is in the earth's shadow,  

DLR